Theta_e
296 295 294 294 293 293 293 292 292 291 291 291 290 289 287 286 285 284 283 282 282 281 280 280 280 279 278 278 277 277 277 278 278 278 279 278 277 277 277 277 277 276 276
296 295 294 294 294 292 292 292 292 291 290 291 289 288 287 286 284 283 282 281 281 280 280 279 278 277 277 277 276 276 276 276 276 276 277 277 277 277 276 276 276 276 276
296 295 294 293 293 292 291 292 291 290 290 289 289 288 287 285 284 282 281 281 280 280 279 278 277 277 276 276 276 275 275 275 276 276 276 276 276 276 276 276 277 277 277
296 295 293 293 293 292 291 290 290 290 290 289 288 287 286 285 283 281 280 279 279 278 278 277 277 276 276 275 275 275 275 276 276 276 276 276 276 277 277 277 277 278 278
296 293 293 292 291 290 290 290 290 289 289 289 287 286 285 283 282 280 279 279 278 277 276 276 276 276 276 276 276 276 276 276 276 276 277 277 277 277 278 278 277 277 277
294 293 292 291 290 289 288 288 287 287 287 287 285 284 282 281 280 279 279 278 277 276 276 276 276 276 275 276 277 277 277 278 277 277 278 278 277 277 278 277 277 276 277
294 292 291 290 288 287 287 286 285 284 284 283 282 281 281 280 279 279 278 277 276 277 277 276 276 275 275 275 275 276 276 276 277 277 277 277 277 276 276 276 276 276 277
292 291 290 288 287 285 284 283 282 282 282 281 280 280 279 279 279 280 279 278 277 277 276 276 275 275 275 275 276 276 276 276 276 276 276 276 276 276 277 277 277 277 277
290 290 288 287 285 283 282 281 281 280 279 279 280 279 278 279 279 279 279 277 276 276 275 275 275 275 275 276 276 276 276 276 276 276 275 275 276 276 275 274 273 273 274
288 288 287 286 284 282 281 280 280 280 279 278 278 278 278 278 278 279 278 276 275 275 275 275 275 275 275 276 276 276 275 275 273 274 274 272 271 270 271 272 272 272 273
287 287 285 284 283 281 280 279 278 278 277 277 276 276 276 276 277 278 277 276 275 275 275 275 274 274 274 276 276 275 273 274 274 272 269 269 270 270 270 271 272 272 273
287 285 283 282 281 280 279 277 277 277 276 275 274 274 274 274 274 277 277 277 276 275 275 274 273 273 274 274 274 272 273 273 270 268 268 269 270 270 271 271 271 271 272
283 282 281 280 279 279 278 276 275 275 275 275 274 273 272 272 273 276 277 277 277 275 274 273 274 272 272 271 271 271 270 269 268 268 269 269 270 270 270 270 271 272 272
281 280 278 279 278 277 276 276 275 275 275 274 274 273 273 273 273 275 275 275 275 274 273 272 271 270 270 270 269 269 268 268 268 268 269 269 269 269 269 270 272 272 272
281 279 277 277 276 275 275 275 276 275 275 275 274 274 273 272 272 273 273 273 273 272 272 270 269 269 268 268 268 268 268 268 268 268 268 268 268 269 269 271 272 271 271
280 277 276 275 274 274 274 274 276 275 276 276 275 274 273 274 273 274 274 274 274 272 270 269 267 266 266 266 266 267 267 267 267 267 267 268 269 269 269 272 271 271 270
280 277 275 274 274 274 273 273 274 275 276 276 276 275 274 275 276 276 276 274 273 269 269 267 266 265 265 265 265 265 265 266 266 266 267 267 267 269 270 271 271 271 270
279 278 276 274 274 273 273 274 274 275 276 276 276 275 275 276 276 275 274 271 269 266 267 266 266 265 265 264 265 264 264 264 264 265 266 266 268 268 271 271 270 270 270
278 277 275 274 273 273 273 273 274 275 275 275 274 275 275 276 275 275 271 268 267 266 266 266 265 266 265 265 265 265 264 264 264 264 265 266 268 269 270 270 270 270 270
276 276 274 273 272 272 273 273 274 274 274 274 274 273 274 275 272 267 267 266 267 266 266 266 266 267 265 265 265 264 264 264 264 264 265 267 267 270 269 269 270 270 269
275 274 272 272 272 272 273 273 273 271 272 272 269 270 272 270 268 267 265 265 266 266 266 266 267 267 266 266 265 265 264 264 264 264 265 267 269 269 269 269 269 269 269
274 273 271 271 271 271 271 271 270 269 269 266 266 269 270 269 268 265 264 265 265 266 266 266 266 266 266 265 265 265 265 264 264 264 264 266 269 269 268 268 268 269 269
272 271 271 270 270 270 269 268 268 267 266 265 266 268 266 266 265 264 264 264 264 265 265 265 265 266 266 266 266 266 266 266 266 265 265 267 268 268 268 267 268 268 268
270 270 269 268 268 268 267 267 266 266 265 265 264 264 264 263 263 263 264 264 264 264 264 264 264 266 266 267 267 267 268 268 268 268 267 268 268 267 267 267 267 268 268
268 267 267 267 267 266 265 264 264 264 264 263 263 263 263 263 263 263 263 263 263 263 264 263 264 265 266 267 267 268 268 269 270 269 270 270 268 266 266 266 267 267 267
266 266 266 266 265 264 264 263 263 262 262 262 262 262 262 262 262 263 263 263 263 263 264 264 264 264 266 266 267 268 268 269 269 269 270 270 268 266 266 266 266 266 267
Wind_Speed
42 44 40 42 44 44 45 45 44 43 41 39 40 42 40 36 33 30 27 24 22 18 16 14 14 13 15 16 16 17 19 20 15 37 22 24 29 34 34 33 34 36 38
42 38 42 41 44 43 45 46 44 43 39 38 39 40 40 38 35 33 30 27 24 20 17 15 15 13 15 17 17 20 21 21 23 32 34 29 28 32 35 38 37 37 40
37 39 39 40 44 44 45 47 45 42 39 39 40 43 44 41 37 33 30 26 23 20 18 16 16 14 17 17 17 19 19 19 21 27 44 32 33 34 39 38 41 41 41
37 39 38 42 48 45 44 45 45 43 41 42 45 45 43 41 38 34 30 26 22 20 17 17 15 15 16 16 17 16 16 19 21 27 34 42 34 34 35 38 40 37 41
36 35 40 41 41 39 42 45 43 43 43 43 45 44 43 41 38 33 29 25 23 19 16 14 13 14 14 14 16 17 18 21 21 25 29 35 37 35 32 36 40 42 43
35 39 37 37 39 40 39 41 41 41 42 44 46 45 42 39 35 30 29 26 23 19 17 15 12 14 14 14 16 17 20 22 24 25 26 29 41 37 39 40 40 36 22
33 32 33 34 35 38 39 39 40 41 42 41 40 39 38 37 28 25 23 26 23 19 16 12 12 10 13 15 15 17 20 23 28 32 35 34 42 40 43 44 41 41 43
27 27 31 33 33 33 34 34 32 36 39 39 38 37 34 32 22 22 23 20 19 18 16 13 11 11 12 13 17 20 22 26 29 31 34 37 37 42 39 42 46 47 47
25 28 30 32 29 31 31 31 33 34 33 35 38 38 36 33 25 23 21 20 19 15 10 9 10 11 11 14 18 23 25 26 27 30 35 39 40 41 45 46 40 32 23
10 17 24 28 30 30 31 35 35 35 34 33 32 34 35 33 26 25 23 23 19 13 11 10 12 12 14 14 18 20 23 25 28 30 28 33 36 34 33 33 36 32 29
8 13 18 23 26 27 28 26 29 29 29 29 29 29 31 30 29 24 23 21 19 16 13 12 13 10 11 15 19 21 23 25 27 29 32 29 29 29 29 29 32 34 35
10 12 16 20 24 26 28 26 28 29 26 25 25 26 29 30 28 22 22 18 15 15 13 10 10 8 14 15 15 16 20 21 25 25 25 27 29 31 31 32 36 40 41
12 16 21 22 23 27 30 27 24 26 25 25 25 23 21 24 25 22 21 19 16 10 10 7 6 10 11 12 12 14 16 19 19 21 25 28 30 35 39 40 37 40 42
16 17 20 28 29 27 26 29 28 26 24 23 23 23 24 25 27 27 27 22 16 13 9 9 7 7 7 9 13 14 17 18 20 25 27 31 34 35 37 36 38 38 38
21 21 19 20 22 24 29 32 30 32 37 35 29 29 29 24 30 31 30 27 20 13 11 7 6 3 7 10 14 17 21 22 21 24 27 31 32 34 36 36 37 37 31
20 19 21 19 20 22 21 17 23 24 30 31 32 36 31 27 29 25 19 16 15 15 11 9 5 1 7 11 14 19 22 21 22 25 27 29 31 34 36 37 36 32 29
24 21 21 22 22 19 18 18 15 20 25 26 27 29 27 33 36 30 23 18 16 12 10 9 5 2 6 11 12 16 20 24 25 25 26 30 32 34 35 36 35 32 29
25 24 23 23 23 26 25 24 23 23 19 20 23 26 29 31 29 26 27 21 17 10 11 8 4 2 6 11 14 19 23 26 24 25 28 31 30 33 34 34 33 31 30
24 22 23 21 22 23 24 23 24 24 25 26 26 25 28 28 26 24 22 21 19 14 10 6 4 3 7 11 14 19 23 26 27 29 28 29 31 32 35 36 36 37 35
24 24 24 21 22 23 25 26 26 27 27 28 27 26 30 29 25 25 19 19 17 13 9 6 4 4 9 11 15 19 24 28 28 27 28 29 31 34 35 37 37 34 32
22 19 21 20 22 24 26 27 27 27 27 25 22 31 33 26 28 24 20 18 16 12 8 5 4 5 9 12 16 20 24 29 30 29 28 30 31 35 36 37 38 36 35
19 20 23 22 23 24 24 26 26 27 27 24 26 29 25 29 27 23 19 16 14 11 7 7 8 8 10 14 17 21 26 30 33 30 31 31 32 35 37 38 37 36 34
20 22 21 20 22 24 23 24 25 27 26 26 29 25 27 29 26 22 19 15 12 9 9 9 11 10 10 14 17 21 26 31 34 33 33 31 33 35 37 36 37 35 34
21 22 22 21 22 23 23 23 23 26 28 29 26 28 29 30 25 21 17 13 11 9 8 10 11 11 12 14 16 19 24 28 33 34 33 29 32 36 37 36 35 38 36
20 20 21 22 23 22 22 22 23 25 26 27 27 30 30 25 22 18 14 12 9 9 9 10 10 11 13 14 17 20 23 25 30 35 27 34 35 34 35 35 35 38 37
20 20 20 21 21 22 23 23 22 23 24 25 28 30 27 23 18 15 12 9 9 9 8 8 9 11 11 13 16 19 22 25 30 35 32 35 33 32 34 35 37 35 37
Wind_Direction
213 213 211 216 218 218 223 225 225 226 224 222 220 214 211 210 210 212 215 214 216 217 224 227 234 243 254 260 262 264 257 254 267 289 285 297 300 298 301 303 299 295 294
221 211 213 216 221 218 219 224 226 224 222 221 217 212 210 210 210 211 212 213 214 215 217 227 234 239 251 260 268 265 262 262 267 286 297 299 297 300 301 300 297 295 292
217 217 215 216 220 218 219 223 222 219 217 215 213 211 210 210 209 212 214 215 215 217 220 225 235 242 254 265 266 268 267 267 268 277 289 296 298 303 300 298 296 293 286
223 220 215 216 219 218 217 220 219 217 213 212 212 211 211 210 210 210 210 211 215 217 221 231 238 246 259 264 266 260 264 268 272 275 284 295 296 297 294 296 297 293 290
222 215 217 218 218 214 215 220 218 214 213 210 207 209 210 209 208 206 208 208 213 215 220 229 240 249 250 255 262 267 267 266 272 275 283 291 293 297 295 297 290 293 290
214 216 216 212 211 208 208 211 210 208 206 205 206 207 206 208 208 204 206 207 209 211 213 224 233 246 265 264 266 269 271 275 274 274 281 286 288 292 297 295 291 291 293
218 217 212 207 201 203 204 203 202 199 200 198 201 204 206 208 197 191 195 205 204 207 210 213 227 246 259 269 272 274 275 277 277 281 281 281 288 291 292 291 286 285 282
212 208 207 200 198 197 196 196 191 190 192 191 198 202 203 206 192 193 194 202 203 210 218 228 247 263 274 277 280 281 279 278 278 276 276 280 282 287 282 284 291 293 292
203 204 202 197 188 186 186 185 184 183 183 189 197 198 201 201 188 191 193 203 209 212 225 249 265 265 273 281 288 288 284 279 285 284 284 286 288 289 290 292 286 287 285
218 205 201 198 195 185 184 183 185 186 183 185 188 197 200 198 184 187 192 201 199 204 227 245 253 261 276 283 285 291 292 291 292 290 291 293 291 286 291 282 281 281 284
252 212 204 200 196 192 182 179 175 171 171 174 179 188 198 195 185 187 192 198 201 203 219 223 254 255 271 285 291 290 291 297 303 300 302 297 292 288 289 285 276 276 281
215 205 199 197 190 185 181 176 174 167 163 166 165 172 191 192 192 188 193 202 198 212 210 236 265 275 290 290 289 293 300 304 312 307 298 296 299 297 296 294 288 281 278
212 201 193 194 193 192 178 168 167 169 169 172 172 170 170 182 182 186 186 194 200 205 223 240 255 286 287 292 304 309 311 327 309 301 297 298 299 300 302 300 295 293 287
236 212 198 184 183 187 187 178 173 178 178 179 179 170 166 170 175 178 182 186 195 204 211 214 256 272 279 296 318 327 335 327 307 298 297 299 302 304 304 298 301 302 297
228 221 202 192 187 182 185 187 190 196 186 178 182 174 166 175 183 183 181 183 185 189 197 228 230 277 313 323 324 333 339 323 306 304 303 304 304 304 302 300 305 302 295
217 205 198 194 193 182 183 189 209 205 197 195 186 177 175 176 169 170 176 182 181 175 181 197 198 262 306 313 328 336 329 310 304 305 303 304 303 303 300 305 307 302 298
223 214 198 182 183 185 181 180 175 196 197 195 184 173 172 163 163 166 168 180 180 177 178 188 204 242 304 310 331 326 304 311 307 304 304 305 301 303 302 310 309 306 302
235 224 204 195 188 177 180 180 173 171 173 178 180 167 162 166 163 165 161 165 169 180 188 188 199 268 310 313 332 324 321 313 308 311 305 302 301 305 312 312 311 308 306
237 222 206 194 188 180 170 175 172 167 158 151 152 158 166 164 163 165 164 172 177 183 188 200 243 318 308 317 328 323 320 317 318 307 301 300 307 310 316 314 312 310 307
231 218 194 181 173 172 167 170 166 162 157 154 160 161 165 163 165 154 170 173 176 185 193 210 243 307 308 325 329 324 322 328 320 305 302 302 308 319 318 316 315 313 311
218 196 183 176 175 173 172 170 163 158 154 156 154 164 171 162 162 170 172 175 179 190 199 233 260 292 316 328 331 328 326 324 321 307 304 308 314 322 321 318 316 314 313
194 176 174 174 168 169 167 163 158 155 150 140 147 165 170 174 173 175 179 182 189 198 211 246 272 296 318 326 331 332 327 323 323 315 310 311 320 324 323 321 319 319 318
170 163 163 163 165 161 157 158 156 149 144 145 152 166 169 177 177 178 181 186 195 205 223 251 274 290 314 322 332 336 327 324 325 327 314 312 325 326 324 322 323 322 324
155 154 151 149 148 150 152 153 147 145 144 147 154 158 168 171 174 177 181 189 200 216 236 255 271 290 310 322 331 336 334 331 333 331 323 315 328 325 324 326 326 326 325
135 139 142 146 148 146 143 138 138 140 142 148 151 160 166 166 171 176 184 198 212 229 242 258 273 287 297 318 330 334 336 335 336 336 331 341 335 327 326 328 329 331 330
128 134 138 140 139 139 133 130 132 139 145 149 156 161 162 166 171 177 190 207 229 247 262 279 287 290 300 315 331 335 337 336 335 331 339 341 338 331 331 333 334 335 335